Time,TemperatureF,DewpointF,PressureIn,WindDirection,WindDirectionDegrees,WindSpeedMPH,WindSpeedGustMPH,Humidity,HourlyPrecipIn,Conditions,Clouds,dailyrainin,SoftwareType,DateUTC
2013-11-28 00:53:00,5.0,2.0,30.32,NW,315,1.0,-999.0,85,-99.99,,,-99.99,,2013-11-28 05:53:00,
2013-11-28 01:12:00,6.0,3.0,30.32,NW,315,0.0,-999.0,86,-99.99,,,-99.99,,2013-11-28 06:12:00,
2013-11-28 06:42:00,2.0,-1.0,30.39,NW,315,0.0,-999.0,86,-99.99,,,-99.99,,2013-11-28 11:42:00,
2013-11-28 06:52:00,3.0,0.0,30.40,NW,314,0.0,-999.0,86,-99.99,,,-99.99,,2013-11-28 11:52:00,
2013-11-28 07:12:00,4.0,1.0,30.40,NW,314,0.0,-999.0,86,-99.99,,,-99.99,,2013-11-28 12:12:00,
2013-11-28 07:22:00,5.0,2.0,30.40,NW,315,0.0,-999.0,86,-99.99,,,-99.99,,2013-11-28 12:22:00,
2013-11-28 07:42:00,5.0,2.0,30.41,NW,315,0.0,-999.0,86,-99.99,,,-99.99,,2013-11-28 12:42:00,
2013-11-28 07:52:00,4.0,1.0,30.41,NW,315,0.0,-999.0,85,-99.99,,,-99.99,,2013-11-28 12:52:00,
2013-11-28 08:11:00,3.0,0.0,30.42,NW,314,1.0,-999.0,85,-99.99,,,-99.99,,2013-11-28 13:11:00,
2013-11-28 08:22:00,3.0,0.0,30.42,NW,314,0.0,-999.0,85,-99.99,,,-99.99,,2013-11-28 13:22:00,
2013-11-28 08:42:00,2.0,-1.0,30.42,NW,315,0.0,-999.0,86,-99.99,,,-99.99,,2013-11-28 13:42:00,
2013-11-28 08:52:00,3.0,0.0,30.43,NW,315,0.0,-999.0,86,-99.99,,,-99.99,,2013-11-28 13:52:00,
2013-11-28 09:11:00,3.0,0.0,30.43,NW,315,0.0,-999.0,86,-99.99,,,-99.99,,2013-11-28 14:11:00,
2013-11-28 09:22:00,5.0,2.0,30.43,NW,314,1.0,-999.0,87,-99.99,,,-99.99,,2013-11-28 14:22:00,
2013-11-28 09:32:00,5.0,2.0,30.43,NW,314,1.0,-999.0,87,-99.99,,,-99.99,,2013-11-28 14:32:00,
2013-11-28 09:42:00,5.0,2.0,30.43,NW,314,1.0,-999.0,87,-99.99,,,-99.99,,2013-11-28 14:42:00,
2013-11-28 09:52:00,6.0,3.0,30.43,NW,315,0.0,-999.0,88,-99.99,,,-99.99,,2013-11-28 14:52:00,
2013-11-28 10:12:00,8.0,5.0,30.44,NW,315,1.0,-999.0,89,-99.99,,,-99.99,,2013-11-28 15:12:00,
2013-11-28 10:22:00,9.0,6.0,30.44,NW,314,0.0,-999.0,88,-99.99,,,-99.99,,2013-11-28 15:22:00,
2013-11-28 10:44:00,9.0,6.0,30.44,NW,314,0.0,-999.0,87,-99.99,,,-99.99,,2013-11-28 15:44:00,
2013-11-28 10:54:00,10.0,7.0,30.45,NW,314,0.0,-999.0,88,-99.99,,,-99.99,,2013-11-28 15:54:00,
2013-11-28 11:13:00,12.0,9.0,30.45,NW,315,0.0,-999.0,88,-99.99,,,-99.99,,2013-11-28 16:13:00,
2013-11-28 11:23:00,13.0,10.0,30.45,NW,315,1.0,-999.0,87,-99.99,,,-99.99,,2013-11-28 16:23:00,
2013-11-28 11:43:00,13.0,10.0,30.45,NW,315,0.0,-999.0,87,-99.99,,,-99.99,,2013-11-28 16:43:00,
2013-11-28 11:53:00,15.0,12.0,30.45,NW,314,0.0,-999.0,86,-99.99,,,-99.99,,2013-11-28 16:53:00,
2013-11-28 12:12:00,16.0,12.0,30.45,WNW,290,1.0,-999.0,83,-99.99,,,-99.99,,2013-11-28 17:12:00,
2013-11-28 12:23:00,17.0,10.0,30.45,ENE,59,2.0,-999.0,72,-99.99,,,-99.99,,2013-11-28 17:23:00,
2013-11-28 12:42:00,18.0,9.0,30.45,NE,52,3.0,-999.0,67,-99.99,,,-99.99,,2013-11-28 17:42:00,
2013-11-28 12:52:00,18.0,9.0,30.45,East,83,2.0,-999.0,66,-99.99,,,-99.99,,2013-11-28 17:52:00,
2013-11-28 13:12:00,18.0,10.0,30.45,SE,129,2.0,-999.0,69,-99.99,,,-99.99,,2013-11-28 18:12:00,
2013-11-28 13:22:00,18.0,9.0,30.45,SSE,164,3.0,-999.0,68,-99.99,,,-99.99,,2013-11-28 18:22:00,
2013-11-28 13:42:00,18.0,10.0,30.45,SSW,196,3.0,-999.0,69,-99.99,,,-99.99,,2013-11-28 18:42:00,
2013-11-28 13:52:00,18.0,10.0,30.45,SSW,198,1.0,-999.0,69,-99.99,,,-99.99,,2013-11-28 18:52:00,
2013-11-28 14:11:00,19.0,11.0,30.44,NNE,24,1.0,-999.0,69,-99.99,,,-99.99,,2013-11-28 19:11:00,
2013-11-28 14:22:00,18.0,11.0,30.45,NE,55,3.0,-999.0,72,-99.99,,,-99.99,,2013-11-28 19:22:00,
2013-11-28 14:42:00,18.0,11.0,30.45,ENE,63,4.0,-999.0,74,-99.99,,,-99.99,,2013-11-28 19:42:00,
2013-11-28 14:52:00,18.0,11.0,30.45,ENE,64,3.0,-999.0,74,-99.99,,,-99.99,,2013-11-28 19:52:00,
2013-11-28 15:12:00,18.0,11.0,30.45,East,80,2.0,-999.0,73,-99.99,,,-99.99,,2013-11-28 20:12:00,
2013-11-28 15:22:00,18.0,11.0,30.45,East,81,1.0,-999.0,73,-99.99,,,-99.99,,2013-11-28 20:22:00,
2013-11-28 15:42:00,18.0,11.0,30.45,ENE,72,2.0,-999.0,73,-99.99,,,-99.99,,2013-11-28 20:42:00,
2013-11-28 15:52:00,19.0,12.0,30.46,ENE,72,1.0,-999.0,74,-99.99,,,-99.99,,2013-11-28 20:52:00,
2013-11-28 16:11:00,19.0,12.0,30.46,East,88,1.0,-999.0,74,-99.99,,,-99.99,,2013-11-28 21:11:00,
2013-11-28 16:22:00,19.0,12.0,30.47,East,92,1.0,-999.0,73,-99.99,,,-99.99,,2013-11-28 21:22:00,
2013-11-28 16:43:00,20.0,12.0,30.47,East,91,1.0,-999.0,72,-99.99,,,-99.99,,2013-11-28 21:43:00,
2013-11-28 16:53:00,19.0,11.0,30.48,East,91,0.0,-999.0,72,-99.99,,,-99.99,,2013-11-28 21:53:00,
2013-11-28 17:13:00,19.0,12.0,30.48,East,91,0.0,-999.0,73,-99.99,,,-99.99,,2013-11-28 22:13:00,
2013-11-28 17:23:00,19.0,12.0,30.48,East,91,0.0,-999.0,74,-99.99,,,-99.99,,2013-11-28 22:23:00,
2013-11-28 17:42:00,18.0,11.0,30.49,East,91,0.0,-999.0,75,-99.99,,,-99.99,,2013-11-28 22:42:00,
2013-11-28 17:53:00,18.0,12.0,30.50,East,91,0.0,-999.0,77,-99.99,,,-99.99,,2013-11-28 22:53:00,
2013-11-28 18:12:00,17.0,11.0,30.51,East,91,0.0,-999.0,78,-99.99,,,-99.99,,2013-11-28 23:12:00,
2013-11-28 18:22:00,16.0,11.0,30.52,East,91,0.0,-999.0,79,-99.99,,,-99.99,,2013-11-28 23:22:00,
2013-11-28 18:42:00,15.0,10.0,30.52,East,91,0.0,-999.0,81,-99.99,,,-99.99,,2013-11-28 23:42:00,
2013-11-28 18:52:00,14.0,10.0,30.53,East,91,0.0,-999.0,82,-99.99,,,-99.99,,2013-11-28 23:52:00,
2013-11-28 19:11:00,13.0,9.0,30.53,East,91,0.0,-999.0,83,-99.99,,,-99.99,,2013-11-29 00:11:00,
2013-11-28 19:22:00,12.0,8.0,30.54,East,91,0.0,-999.0,84,-99.99,,,-99.99,,2013-11-29 00:22:00,
2013-11-28 19:42:00,12.0,8.0,30.55,East,91,0.0,-999.0,85,-99.99,,,-99.99,,2013-11-29 00:42:00,
2013-11-28 19:52:00,12.0,9.0,30.55,East,91,0.0,-999.0,86,-99.99,,,-99.99,,2013-11-29 00:52:00,
2013-11-28 20:12:00,13.0,10.0,30.55,East,91,0.0,-999.0,86,-99.99,,,-99.99,,2013-11-29 01:12:00,
2013-11-28 20:22:00,13.0,10.0,30.56,East,91,0.0,-999.0,87,-99.99,,,-99.99,,2013-11-29 01:22:00,
2013-11-28 20:42:00,13.0,10.0,30.57,East,91,0.0,-999.0,87,-99.99,,,-99.99,,2013-11-29 01:42:00,
2013-11-28 20:52:00,13.0,10.0,30.57,East,91,0.0,-999.0,87,-99.99,,,-99.99,,2013-11-29 01:52:00,
2013-11-28 21:12:00,14.0,11.0,30.57,East,91,0.0,-999.0,88,-99.99,,,-99.99,,2013-11-29 02:12:00,
2013-11-28 21:22:00,14.0,11.0,30.57,East,91,0.0,-999.0,88,-99.99,,,-99.99,,2013-11-29 02:22:00,
2013-11-28 21:42:00,13.0,10.0,30.58,East,91,0.0,-999.0,88,-99.99,,,-99.99,,2013-11-29 02:42:00,
2013-11-28 21:52:00,13.0,10.0,30.58,East,91,0.0,-999.0,88,-99.99,,,-99.99,,2013-11-29 02:52:00,
2013-11-28 22:11:00,14.0,11.0,30.58,East,91,0.0,-999.0,88,-99.99,,,-99.99,,2013-11-29 03:11:00,
2013-11-28 22:22:00,14.0,11.0,30.58,East,91,0.0,-999.0,89,-99.99,,,-99.99,,2013-11-29 03:22:00,
2013-11-28 22:43:00,15.0,12.0,30.58,East,91,0.0,-999.0,88,-99.99,,,-99.99,,2013-11-29 03:43:00,
2013-11-28 22:53:00,14.0,11.0,30.59,East,91,0.0,-999.0,88,-99.99,,,-99.99,,2013-11-29 03:53:00,
2013-11-28 23:13:00,13.0,10.0,30.59,East,91,0.0,-999.0,87,-99.99,,,-99.99,,2013-11-29 04:13:00,
2013-11-28 23:23:00,12.0,9.0,30.60,East,91,0.0,-999.0,87,-99.99,,,-99.99,,2013-11-29 04:23:00,
2013-11-28 23:43:00,11.0,8.0,30.60,East,91,0.0,-999.0,87,-99.99,,,-99.99,,2013-11-29 04:43:00,
2013-11-28 23:52:00,10.0,7.0,30.61,East,91,0.0,-999.0,88,-99.99,,,-99.99,,2013-11-29 04:52:00,